USA 159 (DSP 21)        
1 26880U 01033A   19260.75826715 -.00000295  00000-0  00000+0 0  9996
2 26880  10.5101  32.1836 0001129 182.1071   5.9480  1.00267081  6906
IUS R/B(1)              
1 26882U 01033C   19260.39564498 -.00000263  00000-0  23091-3 0  9999
2 26882  28.0791 263.4439 7122098 117.1384 330.0571  2.42650943  1915
IUS R/B(2)              
1 26883U 01033D   19260.23738599 -.00000293  00000-0  00000+0 0  9992
2 26883  10.5865  32.4484 0009226 321.6028  38.3913  0.99898248  1140